When you browse on this site, cookies collect data to enhance your experience and personalize the content and advertising you see.
Visit our Privacy Policy to learn more. By continuing to use the site, you agree to this use of cookies and data.
  • In Deutschland
  • Länderverzeichnis
  • Für 7 Tage
  • Wassertemperatur
  • Wetterkarte
  • Widgets
  • user-avatar
    Anmelden

    Stündliche Wetter Benguela

    Heute, 7 Dezember, Samstag

    Zeit Temperatur Niederschläge Wind Luftdruck Luftfeuchtigkeit
    00:00 +27°C° 0 mm 2 m/S 758 mmHg 80%
    01:00 +27°C° 0 mm 1 m/S 758 mmHg 77%
    02:00 +27°C° 0 mm 1 m/S 758 mmHg 78%
    03:00 +26°C° 0 mm 1 m/S 757 mmHg 79%
    04:00 +26°C° 0 mm 1 m/S 757 mmHg 79%
    05:00 +27°C° 0 mm 1 m/S 757 mmHg 78%
    06:00 +27°C° 0 mm 1 m/S 758 mmHg 76%
    07:00 +27°C° 0 mm 1 m/S 758 mmHg 75%
    08:00 +29°C° 0 mm 1 m/S 758 mmHg 68%
    09:00 +30°C° 0 mm 2 m/S 758 mmHg 62%
    10:00 +31°C° 0 mm 3 m/S 757 mmHg 56%
    11:00 +33°C° 0 mm 3 m/S 757 mmHg 55%
    12:00 +33°C° 0 mm 4 m/S 756 mmHg 54%
    13:00 +34°C° 0 mm 4 m/S 756 mmHg 54%
    14:00 +33°C° 0 mm 4 m/S 756 mmHg 55%
    15:00 +32°C° 0 mm 5 m/S 756 mmHg 57%
    16:00 +32°C° 0 mm 5 m/S 755 mmHg 59%
    17:00 +30°C° 0 mm 4 m/S 756 mmHg 63%
    18:00 +29°C° 0 mm 4 m/S 757 mmHg 68%
    19:00 +28°C° 0 mm 3 m/S 758 mmHg 72%
    20:00 +28°C° 0 mm 3 m/S 758 mmHg 72%
    21:00 +27°C° 0 mm 2 m/S 759 mmHg 73%
    22:00 +27°C° 0 mm 2 m/S 759 mmHg 73%
    23:00 +27°C° 0 mm 2 m/S 759 mmHg 74%

    Morgen, 8 Dezember, Sonntag

    Zeit Temperatur Niederschläge Wind Luftdruck Luftfeuchtigkeit
    00:00 +27°C° 0 mm 2 m/S 759 mmHg 75%
    01:00 +27°C° 0 mm 2 m/S 759 mmHg 76%
    02:00 +26°C° 0 mm 2 m/S 758 mmHg 76%
    03:00 +26°C° 0 mm 2 m/S 758 mmHg 77%
    04:00 +26°C° 0 mm 2 m/S 757 mmHg 78%
    05:00 +26°C° 0 mm 1 m/S 758 mmHg 75%
    06:00 +27°C° 0 mm 1 m/S 758 mmHg 73%
    07:00 +27°C° 0 mm 1 m/S 759 mmHg 71%
    08:00 +28°C° 0 mm 2 m/S 759 mmHg 67%
    09:00 +29°C° 0 mm 3 m/S 759 mmHg 62%
    10:00 +30°C° 0 mm 3 m/S 758 mmHg 58%
    11:00 +32°C° 0 mm 4 m/S 758 mmHg 55%
    12:00 +33°C° 0 mm 4 m/S 758 mmHg 52%
    13:00 +33°C° 0 mm 5 m/S 757 mmHg 49%
    14:00 +33°C° 0 mm 5 m/S 757 mmHg 50%
    15:00 +33°C° 0 mm 5 m/S 756 mmHg 51%
    16:00 +32°C° 0 mm 4 m/S 756 mmHg 52%
    17:00 +30°C° 0 mm 4 m/S 756 mmHg 59%
    18:00 +29°C° 0 mm 4 m/S 757 mmHg 65%
    19:00 +27°C° 0 mm 4 m/S 757 mmHg 71%
    20:00 +27°C° 0 mm 3 m/S 758 mmHg 74%
    21:00 +26°C° 0 mm 3 m/S 758 mmHg 76%
    22:00 +26°C° 0 mm 2 m/S 758 mmHg 79%
    23:00 +26°C° 0 mm 2 m/S 758 mmHg 79%

    übermorgen, 9 Dezember, Montag

    Zeit Temperatur Niederschläge Wind Luftdruck Luftfeuchtigkeit
    00:00 +26°C° 0 mm 2 m/S 758 mmHg 78%
    01:00 +26°C° 0 mm 2 m/S 758 mmHg 78%
    02:00 +26°C° 0 mm 2 m/S 758 mmHg 77%
    03:00 +26°C° 0 mm 2 m/S 758 mmHg 77%
    04:00 +26°C° 0 mm 2 m/S 757 mmHg 76%
    05:00 +26°C° 0 mm 2 m/S 758 mmHg 73%
    06:00 +26°C° 0 mm 2 m/S 758 mmHg 71%
    07:00 +27°C° 0 mm 2 m/S 759 mmHg 68%
    08:00 +28°C° 0 mm 2 m/S 759 mmHg 63%
    09:00 +29°C° 0 mm 3 m/S 759 mmHg 59%
    10:00 +30°C° 0 mm 3 m/S 759 mmHg 54%
    11:00 +32°C° 0 mm 4 m/S 758 mmHg 53%
    12:00 +32°C° 0 mm 4 m/S 758 mmHg 51%
    13:00 +33°C° 0 mm 4 m/S 757 mmHg 50%
    14:00 +32°C° 0 mm 4 m/S 757 mmHg 51%
    15:00 +32°C° 0 mm 4 m/S 757 mmHg 53%
    16:00 +32°C° 0 mm 5 m/S 756 mmHg 54%
    17:00 +29°C° 0 mm 4 m/S 757 mmHg 60%
    18:00 +28°C° 0 mm 4 m/S 757 mmHg 65%
    19:00 +27°C° 0 mm 3 m/S 757 mmHg 71%
    20:00 +26°C° 0 mm 3 m/S 758 mmHg 73%
    21:00 +26°C° 0 mm 2 m/S 758 mmHg 75%
    22:00 +25°C° 0 mm 2 m/S 759 mmHg 77%
    23:00 +25°C° 0 mm 2 m/S 759 mmHg 78%

    10 Dezember, Dienstag

    Zeit Temperatur Niederschläge Wind Luftdruck Luftfeuchtigkeit
    00:00 +25°C° 0 mm 1 m/S 759 mmHg 79%
    01:00 +25°C° 0 mm 1 m/S 758 mmHg 80%
    02:00 +25°C° 0 mm 1 m/S 758 mmHg 79%
    03:00 +25°C° 0 mm 1 m/S 758 mmHg 78%
    04:00 +25°C° 0 mm 1 m/S 758 mmHg 77%
    05:00 +25°C° 0 mm 1 m/S 758 mmHg 75%
    06:00 +25°C° 0 mm 1 m/S 758 mmHg 73%
    07:00 +26°C° 0 mm 1 m/S 759 mmHg 71%
    08:00 +27°C° 0 mm 1 m/S 759 mmHg 65%
    09:00 +28°C° 0 mm 2 m/S 759 mmHg 59%
    10:00 +30°C° 0 mm 3 m/S 758 mmHg 53%
    11:00 +30°C° 0 mm 4 m/S 758 mmHg 52%
    12:00 +32°C° 0 mm 4 m/S 758 mmHg 51%
    13:00 +32°C° 0 mm 5 m/S 757 mmHg 51%
    14:00 +32°C° 0 mm 5 m/S 757 mmHg 52%
    15:00 +32°C° 0 mm 5 m/S 757 mmHg 53%
    16:00 +30°C° 0 mm 5 m/S 756 mmHg 54%
    17:00 +29°C° 0 mm 4 m/S 757 mmHg 59%
    18:00 +28°C° 0 mm 4 m/S 757 mmHg 65%
    19:00 +26°C° 0 mm 4 m/S 758 mmHg 70%
    20:00 +26°C° 0 mm 3 m/S 758 mmHg 73%
    21:00 +25°C° 0 mm 3 m/S 759 mmHg 76%
    22:00 +25°C° 0 mm 2 m/S 759 mmHg 79%
    23:00 +25°C° 0 mm 2 m/S 759 mmHg 80%

    11 Dezember, Mittwoch

    Zeit Temperatur Niederschläge Wind Luftdruck Luftfeuchtigkeit
    00:00 +24°C° 0 mm 2 m/S 759 mmHg 80%
    01:00 +24°C° 0 mm 1 m/S 759 mmHg 81%
    02:00 +24°C° 0 mm 1 m/S 758 mmHg 82%
    03:00 +24°C° 0 mm 1 m/S 758 mmHg 83%
    04:00 +23°C° 0 mm 1 m/S 758 mmHg 83%
    05:00 +24°C° 0 mm 1 m/S 758 mmHg 80%
    06:00 +25°C° 0 mm 1 m/S 758 mmHg 77%
    07:00 +25°C° 0 mm 1 m/S 759 mmHg 74%
    08:00 +27°C° 0 mm 2 m/S 759 mmHg 67%
    09:00 +28°C° 0 mm 2 m/S 759 mmHg 59%
    10:00 +30°C° 0 mm 3 m/S 759 mmHg 52%
    11:00 +31°C° 0 mm 3 m/S 759 mmHg 51%
    12:00 +32°C° 0 mm 4 m/S 758 mmHg 50%
    13:00 +33°C° 0 mm 5 m/S 758 mmHg 48%
    14:00 +32°C° 0 mm 5 m/S 757 mmHg 49%
    15:00 +32°C° 0 mm 5 m/S 757 mmHg 49%
    16:00 +32°C° 0 mm 5 m/S 756 mmHg 50%
    17:00 +29°C° 0 mm 4 m/S 757 mmHg 56%
    18:00 +28°C° 0 mm 4 m/S 757 mmHg 62%
    19:00 +27°C° 0 mm 4 m/S 757 mmHg 67%
    20:00 +26°C° 0 mm 3 m/S 758 mmHg 70%
    21:00 +25°C° 0 mm 3 m/S 758 mmHg 73%
    22:00 +25°C° 0 mm 2 m/S 759 mmHg 75%
    23:00 +25°C° 0 mm 2 m/S 759 mmHg 77%

    12 Dezember, Donnerstag

    Zeit Temperatur Niederschläge Wind Luftdruck Luftfeuchtigkeit
    00:00 +24°C° 0 mm 2 m/S 758 mmHg 78%
    01:00 +24°C° 0 mm 2 m/S 758 mmHg 80%
    02:00 +24°C° 0 mm 2 m/S 758 mmHg 81%
    03:00 +23°C° 0 mm 2 m/S 758 mmHg 82%
    04:00 +23°C° 0 mm 2 m/S 758 mmHg 83%
    05:00 +24°C° 0 mm 1 m/S 758 mmHg 79%
    06:00 +25°C° 0 mm 1 m/S 758 mmHg 75%
    07:00 +25°C° 0 mm 1 m/S 758 mmHg 71%
    08:00 +27°C° 0 mm 1 m/S 758 mmHg 63%
    09:00 +29°C° 0 mm 2 m/S 758 mmHg 56%
    10:00 +31°C° 0 mm 2 m/S 758 mmHg 48%
    11:00 +33°C° 0 mm 3 m/S 758 mmHg 48%
    12:00 +33°C° 0 mm 4 m/S 758 mmHg 48%
    13:00 +33°C° 0 mm 4 m/S 757 mmHg 48%
    14:00 +33°C° 0 mm 4 m/S 757 mmHg 48%
    15:00 +33°C° 0 mm 4 m/S 756 mmHg 49%
    16:00 +33°C° 0 mm 4 m/S 756 mmHg 49%
    17:00 +30°C° 0 mm 4 m/S 756 mmHg 56%
    18:00 +28°C° 0 mm 4 m/S 757 mmHg 63%
    19:00 +27°C° 0 mm 3 m/S 757 mmHg 70%
    20:00 +26°C° 0 mm 3 m/S 758 mmHg 73%
    21:00 +26°C° 0 mm 2 m/S 758 mmHg 75%
    22:00 +25°C° 0 mm 2 m/S 759 mmHg 78%
    23:00 +25°C° 0 mm 2 m/S 759 mmHg 78%
    Mehr zeigen